TIME,DELAY(SENSOR),PRES,OXYGEN,RAWTEMP,T(OPTODE),TCPHASE,FLUOR,BETA(BETA700),BETA(BETA412),BETA(BETA440),CDOM,C(CSC),ED(ED412.20),ED(ED444.00),ED(ED489.60),ED(ED554.30),LU(LU412.10),LU(LU443.90),LU(LU489.70),LU(LU554.70),COMP,TILTX,TILTY,CHECK
1365825657,5807,850.4799804687500000,34.0203208923339840,562.4052734375000000,4.4113268852233890,56.4587097167968750,56,99,99,78,82,15524,0,0,0,0,2147122404,2147775780,2147571035,2147567780,2794,2,13,47390
1365829253,5812,915.8800048828125000,39.2473297119140600,569.6154174804688000,4.1875109672546390,55.7241096496582000,56,98,99,78,81,15524,0,0,0,0,2147123392,2147772818,2147571785,2147567542,2985,2,13,17796
1365832853,5808,930.4699707031250000,40.0036392211914060,570.4937133789062000,4.1602191925048830,55.6192398071289060,55,98,100,78,82,15523,0,0,0,0,2147124004,2147772836,2147568374,2147565787,210,2,13,28655
1365836453,5811,963.1500244140625000,41.1829605102539060,572.3491821289062000,4.1025328636169430,55.4665718078613300,54,98,99,77,82,15523,0,0,0,0,2147123026,2147776832,2147568557,2147569243,3560,2,13,31105
1365840053,5810,961.7700195312500000,40.7233810424804700,572.2974243164062000,4.1041450500488280,55.5344200134277340,55,99,99,78,82,15515,0,0,0,0,2147122084,2147772699,2147569353,2147566866,3249,2,13,38102
1365843653,5811,971.7299804687500000,40.6889915466308600,571.6713867187500000,4.1236081123352050,55.5352287292480500,55,99,99,78,82,15511,0,0,0,0,2147121654,2147773787,2147568932,2147565988,3589,2,13,17450
1365847253,5810,974.2600097656250000,39.5743408203125000,571.0598754882812000,4.1426181793212890,55.6919212341308600,56,98,100,78,82,15508,0,0,0,0,2147123611,2147770395,2147569536,2147570212,475,2,13,45807
1365850853,5811,976.3900146484375000,40.0613708496093750,571.7150268554688000,4.1222529411315920,55.6283607482910160,53,97,99,78,83,15511,0,0,0,0,2147121554,2147770395,2147571337,2147565842,44,3,13,31761
1365854453,5812,973.9899902343750000,39.1781997680664060,570.9641113281250000,4.1455969810485840,55.7476806640625000,56,101,99,78,82,15509,0,0,0,0,2147124726,2147775634,2147566619,2147567488,3396,2,13,60445
1365858053,5809,976.3300170898438000,38.3484191894531250,570.8452758789062000,4.1492881774902340,55.8719482421875000,55,98,100,78,81,15509,0,0,0,0,2147121856,2147772141,2147572123,2147567177,188,2,13,29142
1365861653,5812,976.6799926757812000,38.4765014648437500,571.7866821289062000,4.1200242042541500,55.8635292053222660,56,125,99,78,81,15508,0,0,0,0,2147123008,2147772598,2147567597,2147567488,14,2,13,2135
1365865253,5811,978.2299804687500000,38.9360885620117200,571.9703979492188000,4.1143131256103520,55.7949295043945300,54,100,99,78,82,15509,0,0,0,0,2147123273,2147768228,2147571108,2147567570,143,2,13,14497
1365868853,5808,979.5800170898438000,39.5721397399902340,571.9371948242188000,4.1153450012207030,55.7031517028808600,55,98,100,77,83,15506,0,0,0,0,2147124150,2147770834,2147571227,2147568603,174,2,13,60188
1365872453,5809,982.7299804687500000,39.5597496032714840,571.7877197265625000,4.1199932098388670,55.6980400085449200,55,97,100,78,81,15508,0,0,0,0,2147124233,2147771145,2147574317,2147569645,176,2,13,41389
1365876053,5808,971.9400024414062000,39.6356506347656250,572.8168945312500000,4.0879921913146970,55.6988182067871100,55,104,100,78,81,15509,0,0,0,0,2147123977,2147771776,2147570971,2147570002,145,2,13,23639
1365879653,5809,977.7399902343750000,40.8535881042480500,573.0991210937500000,4.0792140960693360,55.5175781250000000,55,100,100,78,81,15507,0,0,0,0,2147125741,2147770651,2147569344,2147568292,65,2,13,14952
1365883253,5811,981.3300170898438000,40.7026481628418000,572.6015014648438000,4.0946879386901855,55.5411109924316400,54,98,98,78,82,15468,0,0,0,0,2147123794,2147773394,2147572598,2147565101,23,2,13,18885
1365886853,5809,978.5000000000000000,39.1580085754394500,572.7719726562500000,4.0893878936767580,55.7689704895019500,54,97,100,77,83,15470,0,0,0,0,2147123456,2147773723,2147573458,2147566473,3542,2,13,6122
1365890453,5811,974.7000122070312000,39.8420410156250000,572.2612304687500000,4.1052699089050290,55.6655883789062500,54,97,100,79,82,15467,0,0,0,0,2147123090,2147772242,2147571044,2147566994,493,2,13,26333
1365894053,5809,969.7999877929688000,40.6180000305175800,573.3264770507812000,4.0721402168273930,55.5623588562011700,55,98,99,78,82,15467,0,0,0,0,2147120539,2147773714,2147569883,2147567643,245,2,13,13618
1365897653,5808,972.7399902343750000,40.9713401794433600,574.4672241210938000,4.0366568565368650,55.5208396911621100,56,101,99,78,82,15467,0,0,0,0,2147123108,2147773348,2147569728,2147569536,106,2,13,21435
1365901253,5810,972.4000244140625000,40.7737312316894500,574.7869873046875000,4.0267047882080080,55.5511016845703100,54,99,99,78,81,15467,0,0,0,0,2147122386,2147772470,2147571328,2147566610,133,2,13,5226
1365904853,5811,969.9600219726562000,41.2222099304199200,574.6937255859375000,4.0296101570129395,55.4864006042480500,55,100,100,79,82,15467,0,0,0,0,2147129197,2147774976,2147571602,2147567049,3270,2,13,38596
1365908453,5808,967.3300170898438000,40.5840797424316400,574.8098144531250000,4.0259947776794430,55.5823097229003900,54,96,100,79,81,15465,0,0,0,0,2147125787,2147775277,2147566674,2147567990,263,2,13,9270
1365912053,5813,971.3800048828125000,41.0137901306152340,574.7987060546875000,4.0263400077819820,55.5134391784668000,55,99,98,79,81,15465,0,0,0,0,2147127844,2147771245,2147571282,2147570870,67,3,13,60522
1365915653,5808,982.8499755859375000,40.5009613037109400,573.4926757812500000,4.0669732093811035,55.5751419067382800,54,96,101,77,82,15459,0,0,0,0,2147125129,2147774729,2147570870,2147568064,151,2,13,21158
1365919253,5811,977.6500244140625000,39.5281715393066400,573.5261230468750000,4.0659332275390625,55.7248306274414060,55,99,100,78,82,15461,0,0,0,0,2147124736,2147775725,2147571510,2147568246,3230,2,13,55212
1365922853,5810,983.2399902343750000,40.1806907653808600,572.5507812500000000,4.0962657928466800,55.6208190917968750,55,97,99,77,81,15462,0,0,0,0,2147122477,2147775433,2147565933,2147567926,64,2,13,60393
1365926453,5809,984.1900024414062000,40.8516693115234400,572.5031127929688000,4.0977520942687990,55.5135993957519500,55,97,101,79,82,15461,0,0,0,0,2147124818,2147780205,2147569234,2147566747,3304,2,13,44135
1365930053,5809,987.1699829101562000,40.1100196838378900,572.4926757812500000,4.0980720520019530,55.6224594116210940,55,100,100,78,83,15460,0,0,0,0,2147123346,2147772498,2147571510,2147567780,3466,2,13,6293
1365933653,5808,989.7399902343750000,40.9909706115722660,572.2913818359375000,4.1043319702148440,55.4952201843261700,55,99,101,78,81,15458,0,0,0,0,2147124013,2147776292,2147574445,2147565869,3580,2,13,633
1365937253,5808,977.4099731445312000,40.1311187744140600,572.1566772460938000,4.1085209846496580,55.6181602478027340,55,100,99,76,82,15454,0,0,0,0,2147125449,2147774482,2147573220,2147568146,723,2,13,29111
1365940853,5809,979.9099731445312000,39.8867683410644500,572.7791748046875000,4.0891628265380860,55.6653709411621100,54,96,100,78,81,15454,0,0,0,0,2147122313,2147773184,2147570889,2147566802,281,2,13,16071
1365944453,5810,976.2000122070312000,39.4999618530273440,573.4915771484375000,4.0670070648193360,55.7292709350585940,55,96,98,78,82,15456,0,0,0,0,2147121216,2147777453,2147568557,2147568457,194,2,13,8288
1365948053,5810,985.0200195312500000,40.6906394958496100,573.2476196289062000,4.0745959281921390,55.5504112243652340,54,98,100,78,81,15441,0,0,0,0,2147123200,2147778697,2147570907,2147569362,59,2,13,44266
1365951653,5812,985.5800170898438000,40.0286483764648440,572.8248901367188000,4.0877418518066410,55.6383705139160160,55,98,100,78,82,15455,0,0,0,0,2147121956,2147772004,2147572150,2147569435,16,3,13,15080
1365955253,5809,979.8499755859375000,40.7729797363281250,574.0347290039062000,4.0501141548156740,55.5446815490722660,55,98,99,77,81,15456,0,0,0,0,2147121746,2147775433,2147568548,2147564342,255,2,13,23968
1365958853,5810,978.5900268554688000,40.6798400878906250,573.6915283203125000,4.0607872009277340,55.5516204833984400,55,98,100,76,81,15451,0,0,0,0,2147121691,2147772544,2147570724,2147567652,3526,2,13,41934
1365962453,5807,990.4099731445312000,41.2776603698730500,573.3895263671875000,4.0701828002929690,55.4613418579101560,54,98,100,78,82,15455,0,0,0,0,2147121417,2147772251,2147570596,2147568265,3121,2,13,39373
1365966053,5812,992.6900024414062000,40.5605087280273440,572.0651245117188000,4.1113700866699220,55.5554084777832000,54,99,99,78,82,15455,0,0,0,0,2147122441,2147776027,2147574893,2147568429,143,3,13,19453
1365969653,5811,987.2600097656250000,39.4592208862304700,572.0247802734375000,4.1126208305358890,55.7207298278808600,54,98,100,77,82,15454,0,0,0,0,2147123236,2147782528,2147571154,2147567424,160,2,13,44066
1365971156,5812,977.4299926757812000,40.0397300720214840,572.4226074218750000,4.1002521514892580,55.6375808715820300,55,98,101,78,82,15454,0,0,0,0,2147123053,2147775460,2147572672,2147567396,2124,2,13,59866
